User: anonymous   Login
Location: Newark
(51.0000°N, 11.4100°E)
Time: 04:25:09
(UTC+00:00)
Language:

Tiros 1 - Orbit

View from above orbital plane
View from above orbital plane
View from above satellite
View from above satellite

Ground track
Ground track

The orbit data is extracted from the following two-line orbital elements,

1 00029U 60002B   21021.82338915 -.00000118  00000-0  13491-4 0  9997
2 00029  48.3809 358.0330 0023394  86.4738 273.8849 14.74399133250769
Epoch (UTC): 21 January 2021 19:45:40
Eccentricity: 0.0023394
inclination: 48.3809°
perigee height: 630 km
apogee height: 663 km
right ascension of ascending node: 358.0330°
argument of perigee: 86.4738°
revolutions per day: 14.74399133
mean anomaly at epoch: 273.8849°
orbit number at epoch: 25076

The dashed part of the orbit path shows where the satellite is in the earth's shadow,  

DLR